When you browse on this site, cookies collect data to enhance your experience and personalize the content and advertising you see.
Visit our Privacy Policy to learn more. By continuing to use the site, you agree to this use of cookies and data.

Hourly Weather Rozogi

Today, 15 August, Saturday

Time Temperature Precipitation Wind Pressure Humidity
00:00 +17°C° 0 mm 2 mps 750 mmHg 79%
01:00 +16°C° 0 mm 2 mps 750 mmHg 78%
02:00 +16°C° 0 mm 2 mps 750 mmHg 79%
03:00 +16°C° 0 mm 2 mps 750 mmHg 81%
04:00 +15°C° 0 mm 2 mps 750 mmHg 82%
05:00 +17°C° 0 mm 2 mps 750 mmHg 79%
06:00 +18°C° 0 mm 2 mps 750 mmHg 75%
07:00 +20°C° 0 mm 2 mps 751 mmHg 70%
08:00 +23°C° 0 mm 2 mps 751 mmHg 64%
09:00 +24°C° 0 mm 3 mps 751 mmHg 58%
10:00 +26°C° 0 mm 3 mps 751 mmHg 52%
11:00 +27°C° 0 mm 3 mps 751 mmHg 49%
12:00 +27°C° 0 mm 2 mps 751 mmHg 45%
13:00 +28°C° 0 mm 2 mps 751 mmHg 43%
14:00 +27°C° 0 mm 2 mps 751 mmHg 44%
15:00 +27°C° 0 mm 2 mps 750 mmHg 44%
16:00 +27°C° 0 mm 2 mps 750 mmHg 44%
17:00 +25°C° 0 mm 2 mps 750 mmHg 50%
18:00 +23°C° 0 mm 1 mps 750 mmHg 56%
19:00 +21°C° 0 mm 1 mps 750 mmHg 62%
20:00 +21°C° 0 mm 1 mps 751 mmHg 64%
21:00 +20°C° 0 mm 1 mps 751 mmHg 66%
22:00 +19°C° 0 mm 1 mps 751 mmHg 67%
23:00 +19°C° 0 mm 1 mps 751 mmHg 70%

Tomorrow, 16 August, Sunday

Time Temperature Precipitation Wind Pressure Humidity
00:00 +18°C° 0 mm 1 mps 751 mmHg 72%
01:00 +16°C° 0 mm 1 mps 751 mmHg 74%
02:00 +16°C° 0 mm 1 mps 751 mmHg 75%
03:00 +16°C° 0 mm 1 mps 751 mmHg 76%
04:00 +14°C° 0 mm 0 mps 751 mmHg 76%
05:00 +16°C° 0 mm 0 mps 751 mmHg 72%
06:00 +20°C° 0 mm 1 mps 751 mmHg 67%
07:00 +21°C° 0 mm 1 mps 752 mmHg 62%
08:00 +23°C° 0 mm 1 mps 752 mmHg 58%
09:00 +25°C° 0 mm 1 mps 752 mmHg 53%
10:00 +26°C° 0 mm 1 mps 752 mmHg 48%
11:00 +27°C° 0 mm 1 mps 752 mmHg 47%
12:00 +27°C° 0 mm 2 mps 752 mmHg 45%
13:00 +28°C° 0 mm 2 mps 751 mmHg 43%
14:00 +28°C° 0 mm 2 mps 751 mmHg 44%
15:00 +28°C° 0 mm 2 mps 751 mmHg 45%
16:00 +27°C° 0 mm 2 mps 750 mmHg 45%
17:00 +26°C° 0 mm 2 mps 750 mmHg 52%
18:00 +24°C° 0 mm 1 mps 750 mmHg 58%
19:00 +22°C° 0 mm 1 mps 750 mmHg 65%
20:00 +21°C° 0 mm 1 mps 750 mmHg 66%
21:00 +20°C° 0 mm 1 mps 750 mmHg 68%
22:00 +19°C° 0 mm 1 mps 750 mmHg 70%
23:00 +19°C° 0 mm 1 mps 750 mmHg 72%

Day after tomorrow, 17 August, Monday

Time Temperature Precipitation Wind Pressure Humidity
00:00 +18°C° 0 mm 1 mps 750 mmHg 74%
01:00 +18°C° 0 mm 1 mps 750 mmHg 76%
02:00 +18°C° 0 mm 1 mps 750 mmHg 77%
03:00 +16°C° 0 mm 1 mps 750 mmHg 77%
04:00 +16°C° 0 mm 1 mps 749 mmHg 78%
05:00 +18°C° 0 mm 1 mps 749 mmHg 74%
06:00 +19°C° 0 mm 2 mps 749 mmHg 70%
07:00 +20°C° 0 mm 2 mps 749 mmHg 66%
08:00 +22°C° 0 mm 3 mps 749 mmHg 60%
09:00 +24°C° 0 mm 3 mps 749 mmHg 55%
10:00 +26°C° 0 mm 3 mps 749 mmHg 49%
11:00 +26°C° 0 mm 3 mps 749 mmHg 50%
12:00 +26°C° 0 mm 3 mps 748 mmHg 50%
13:00 +27°C° 0 mm 3 mps 748 mmHg 51%
14:00 +26°C° 0 mm 3 mps 748 mmHg 53%
15:00 +26°C° 0 mm 3 mps 747 mmHg 56%
16:00 +26°C° 0 mm 2 mps 747 mmHg 58%
17:00 +24°C° 0.2 mm 3 mps 747 mmHg 61%
18:00 +22°C° 0.2 mm 3 mps 746 mmHg 64%
19:00 +21°C° 0.2 mm 3 mps 746 mmHg 67%
20:00 +20°C° 0.8 mm 3 mps 746 mmHg 69%
21:00 +20°C° 0.8 mm 3 mps 746 mmHg 72%
22:00 +19°C° 0.8 mm 3 mps 746 mmHg 75%
23:00 +18°C° 0.2 mm 3 mps 746 mmHg 76%

18 August, Tuesday

Time Temperature Precipitation Wind Pressure Humidity
00:00 +18°C° 0.2 mm 2 mps 746 mmHg 77%
01:00 +17°C° 0.2 mm 2 mps 745 mmHg 78%
02:00 +17°C° 0 mm 2 mps 745 mmHg 82%
03:00 +16°C° 0 mm 2 mps 745 mmHg 86%
04:00 +16°C° 0 mm 2 mps 744 mmHg 90%
05:00 +17°C° 0 mm 2 mps 744 mmHg 87%
06:00 +18°C° 0 mm 2 mps 744 mmHg 84%
07:00 +19°C° 0 mm 2 mps 744 mmHg 81%
08:00 +21°C° 0 mm 2 mps 744 mmHg 76%
09:00 +23°C° 0 mm 2 mps 744 mmHg 71%
10:00 +25°C° 0 mm 2 mps 744 mmHg 67%
11:00 +26°C° 0 mm 2 mps 743 mmHg 64%
12:00 +27°C° 0 mm 2 mps 743 mmHg 61%
13:00 +28°C° 0 mm 1 mps 743 mmHg 58%
14:00 +27°C° 0.3 mm 1 mps 743 mmHg 60%
15:00 +27°C° 0.3 mm 2 mps 742 mmHg 62%
16:00 +27°C° 0.3 mm 2 mps 742 mmHg 64%
17:00 +25°C° 0.4 mm 2 mps 742 mmHg 71%
18:00 +23°C° 0.4 mm 2 mps 742 mmHg 78%
19:00 +21°C° 0.4 mm 2 mps 742 mmHg 85%
20:00 +20°C° 0.1 mm 2 mps 742 mmHg 88%
21:00 +19°C° 0.1 mm 2 mps 742 mmHg 90%
22:00 +20°C° 0.1 mm 1 mps 742 mmHg 93%
23:00 +19°C° 0 mm 1 mps 742 mmHg 94%

19 August, Wednesday

Time Temperature Precipitation Wind Pressure Humidity
00:00 +19°C° 0 mm 1 mps 742 mmHg 94%
01:00 +18°C° 0 mm 1 mps 742 mmHg 95%
02:00 +18°C° 0 mm 1 mps 742 mmHg 95%
03:00 +18°C° 0 mm 1 mps 741 mmHg 95%
04:00 +18°C° 0 mm 1 mps 741 mmHg 96%
05:00 +19°C° 0 mm 1 mps 741 mmHg 92%
06:00 +20°C° 0 mm 1 mps 742 mmHg 89%
07:00 +19°C° 0 mm 0 mps 742 mmHg 85%
08:00 +22°C° 0 mm 1 mps 742 mmHg 80%
09:00 +23°C° 0 mm 1 mps 742 mmHg 74%
10:00 +24°C° 0 mm 1 mps 742 mmHg 69%
11:00 +24°C° 0 mm 2 mps 742 mmHg 70%
12:00 +24°C° 0 mm 2 mps 742 mmHg 70%
13:00 +24°C° 0 mm 3 mps 742 mmHg 71%
14:00 +24°C° 0.4 mm 3 mps 742 mmHg 73%
15:00 +22°C° 0.4 mm 3 mps 742 mmHg 75%
16:00 +22°C° 0.4 mm 3 mps 742 mmHg 76%
17:00 +21°C° 0.3 mm 3 mps 742 mmHg 80%
18:00 +19°C° 0.3 mm 3 mps 742 mmHg 83%
19:00 +18°C° 0.3 mm 3 mps 742 mmHg 87%
20:00 +18°C° 0 mm 3 mps 742 mmHg 87%
21:00 +18°C° 0 mm 3 mps 742 mmHg 87%
22:00 +17°C° 0 mm 3 mps 742 mmHg 87%
23:00 +17°C° 0.1 mm 3 mps 742 mmHg 89%

20 August, Thursday

Time Temperature Precipitation Wind Pressure Humidity
00:00 +17°C° 0.1 mm 2 mps 742 mmHg 90%
01:00 +17°C° 0.1 mm 2 mps 742 mmHg 91%
02:00 +17°C° 0 mm 2 mps 743 mmHg 92%
03:00 +17°C° 0 mm 2 mps 743 mmHg 93%
04:00 +17°C° 0 mm 2 mps 743 mmHg 93%
05:00 +17°C° 0 mm 2 mps 743 mmHg 92%
06:00 +18°C° 0 mm 2 mps 743 mmHg 91%
07:00 +18°C° 0 mm 3 mps 744 mmHg 90%
08:00 +20°C° 0.1 mm 3 mps 744 mmHg 84%
09:00 +21°C° 0.1 mm 3 mps 744 mmHg 78%
10:00 +22°C° 0.1 mm 3 mps 745 mmHg 72%
11:00 +24°C° 0.4 mm 3 mps 745 mmHg 68%
12:00 +25°C° 0.4 mm 4 mps 745 mmHg 65%
13:00 +26°C° 0.4 mm 4 mps 745 mmHg 62%
14:00 +26°C° 0.2 mm 4 mps 745 mmHg 61%
15:00 +26°C° 0.2 mm 3 mps 745 mmHg 61%
16:00 +26°C° 0.2 mm 3 mps 746 mmHg 60%
17:00 +24°C° 0 mm 2 mps 746 mmHg 66%
18:00 +23°C° 0 mm 2 mps 746 mmHg 71%
19:00 +21°C° 0 mm 1 mps 746 mmHg 77%
20:00 +20°C° 0 mm 1 mps 747 mmHg 80%
21:00 +19°C° 0 mm 1 mps 747 mmHg 83%
22:00 +17°C° 0 mm 0 mps 747 mmHg 85%
23:00 +19°C° 0 mm 1 mps 747 mmHg 86%
Show more